Location: ????????
(37.9452°N, 23.1472°E)
Time: 04:36:32
(UTC+00:00)

ERS-1 Rocket - Pass Details

Date: 18 April 2024
Orbit: 751 x 754 km, 98.3° (Epoch: 20 May)

Event Time Altitude Azimuth Distance (km) Brightness Sun altitude
Exits shadow 19:51:24 67° 324° (NW) 815 3.2 -28.9°
Drops below altitude 10° 19:55:47 10° 345° (NNW) 2,281 6.2 -29.5°
Sets 19:58:06 0° 347° (NNW) 3,210 7.1 -29.8°
